Regional Weather Roundup
Issued by NWS

Home | Current Version | Previous Version | Graphics & Text | Print | Product List | Glossary On
Versions: 1 2 3 4 5 6 7 8 9 10 11 12 13 14 15 16 17 18 19 20 21 22 23 24 25 26 27 28 29 30 31 32 33 34 35 36 37 38 39 40 41 42 43 44 45 46 47 48 49 50
536
ASUS45 KPSR 261210
RWRAZ

ARIZONA HOURLY REGIONAL WEATHER ROUNDUP
NATIONAL WEATHER SERVICE PHOENIX AZ
500 AM MST WED APR 26 2017

NOTE: FAIR INDICATES FEW OR NO CLOUDS BELOW 12,000 FEET WITH NO
SIGNIFICANT WEATHER AND/OR OBSTRUCTIONS TO VISIBILITY.

AZZ001>003-036-261300-
NORTHWEST ARIZONA

CITY           SKY/WX    TMP DP  RH WIND       PRES   REMARKS
BULLHEAD CITY  PTCLDY    61  16  17 CALM      29.83S
KINGMAN        MOCLDY    39  20  46 CALM      29.92S
6HR MIN TEMP:  39; 6HR MAX TEMP:  48;

$$

AZZ004>008-015-016-018-261300-
NORTH CENTRAL ARIZONA

CITY           SKY/WX    TMP DP  RH WIND       PRES   REMARKS
GRAND CANYON   PTCLDY    19  12  74 NE3       29.99R
6HR MIN TEMP:  19; 6HR MAX TEMP:  38;

WILLIAMS       MOCLDY    27  16  63 S8        29.98S WCI  18
PRESCOTT       PTCLDY    41  20  43 NW3       29.96R
6HR MIN TEMP:  40; 6HR MAX TEMP:  48;

FLAGSTAFF      PTCLDY    25  14  63 CALM      29.98S
6HR MIN TEMP:  24; 6HR MAX TEMP:  36;

PAYSON         PTCLDY    45  18  33 NE7       29.96S
PAGE           CLEAR     45  22  40 S3        29.92S
6HR MIN TEMP:  44; 6HR MAX TEMP:  54;

$$

AZZ009>014-017-261300-
NORTHEAST ARIZONA

CITY           SKY/WX    TMP DP  RH WIND       PRES   REMARKS
WINSLOW        CLEAR     31  16  54 CALM      29.95S
6HR MIN TEMP:  31; 6HR MAX TEMP:  47;

SAINT JOHNS    CLEAR     34  26  72 S3        29.94S
6HR MIN TEMP:  33; 6HR MAX TEMP:  41;

WINDOW ROCK    CLEAR     28  20  71 CALM      29.96R
6HR MIN TEMP:  26; 6HR MAX TEMP:  40;

SHOW LOW       CLEAR     30  14  51 CALM      29.98R
$$

AZZ540-542>544-546-548-261300-
GREATER PHOENIX AREA

CITY           SKY/WX    TMP DP  RH WIND       PRES   REMARKS
PHOENIX        PTCLDY    64  27  24 SW6       29.79R
6HR MIN TEMP:  64; 6HR MAX TEMP:  76;

BUCKEYE        CLEAR     61  19  20 N12       29.81S
LUKE AFB       CLEAR     60  29  30 N10       29.81R
6HR MIN TEMP:  60; 6HR MAX TEMP:  70;

DEER VALLEY    CLEAR     63  22  20 NE6       29.82R
6HR MIN TEMP:  63; 6HR MAX TEMP:  71;

SCOTTSDALE     CLEAR     64  23  21 N6        29.83R
6HR MIN TEMP:  63; 6HR MAX TEMP:  74;

MESA-GATEWAY   PTCLDY    61  23  23 NW10      29.81S
$$

AZZ539-553-261300-
SOUTHWEST MARICOPA COUNTY AND PINAL COUNTY

CITY           SKY/WX    TMP DP  RH WIND       PRES   REMARKS
CASA GRANDE    CLEAR     64  23  21 VRB3      29.83R
6HR MIN TEMP:  61; 6HR MAX TEMP:  71;

GILA BEND      FAIR      60  26  27 S3        29.80S
6HR MIN TEMP:  59; 6HR MAX TEMP:  74;

$$

AZZ503-504-507>509-261300-
SOUTHEAST ARIZONA

CITY           SKY/WX    TMP DP  RH WIND       PRES   REMARKS
TUCSON         CLEAR     61  34  36 CALM      29.87S
6HR MIN TEMP:  59; 6HR MAX TEMP:  69;

DAVIS-MONTHAN  CLEAR     54  35  48 SW6       29.86S
6HR MIN TEMP:  54; 6HR MAX TEMP:  67;

NOGALES        PTCLDY    49  35  58 E3        29.91R
6HR MIN TEMP:  47; 6HR MAX TEMP:  58;

SIERRA VISTA   PTCLDY    52  28  39 W12       29.94R
6HR MIN TEMP:  51; 6HR MAX TEMP:  60;

DOUGLAS        PTCLDY    48  32  53 NE6       29.91R
6HR MIN TEMP:  47; 6HR MAX TEMP:  63;

SAFFORD        CLEAR     52  20  28 W7        29.86R
6HR MIN TEMP:  51; 6HR MAX TEMP:  68;

$$

AZZ532-261300-
SOUTHWEST ARIZONA

CITY           SKY/WX    TMP DP  RH WIND       PRES   REMARKS
YUMA           PTCLDY    65  49  56 CALM      29.79S
6HR MIN TEMP:  64; 6HR MAX TEMP:  71;

$$

CAZ041-043-047-048-061-525>527-560>570-261300-
SOUTHERN CALIFORNIA

CITY           SKY/WX    TMP DP  RH WIND       PRES   REMARKS
DOWNTOWN L.A.  CLEAR     61  53  75 VRB5      29.88R
6HR MIN TEMP:  61; 6HR MAX TEMP:  71;

L.A. AIRPORT   PTCLDY    58  53  84 E7        29.88S
6HR MIN TEMP:  58; 6HR MAX TEMP:  72;

SAN DIEGO      PTCLDY    59  54  83 N3        29.90F
6HR MIN TEMP:  59; 6HR MAX TEMP:  63;

BURBANK        PTCLDY    59  45  59 E5        29.87F
6HR MIN TEMP:  59; 6HR MAX TEMP:  67;

ONTARIO        MOCLDY    56  46  69 CALM      29.88F
6HR MIN TEMP:  55; 6HR MAX TEMP:  63;

RIVERSIDE      CLEAR     54  46  74 SE3       29.88F
6HR MIN TEMP:  54; 6HR MAX TEMP:  63;

PALM SPRINGS   PTCLDY    65  47  52 CALM      29.82F
6HR MIN TEMP:  64; 6HR MAX TEMP:  74;

EL CENTRO NAS  CLEAR     62  42  47 CALM      29.80S
6HR MIN TEMP:  60; 6HR MAX TEMP:  69;

IMPERIAL       CLEAR     62  45  53 SW5       29.78S
6HR MIN TEMP:  60; 6HR MAX TEMP:  69;

BLYTHE         PTCLDY    69  34  27 N12       29.80F
6HR MIN TEMP:  65; 6HR MAX TEMP:  74;

NEEDLES        PTCLDY    64  23  21 S6        29.83S
6HR MIN TEMP:  64; 6HR MAX TEMP:  76;

$$

NVZ020-UTZ003-261300-
SOUTHERN NEVADA-UTAH

CITY           SKY/WX    TMP DP  RH WIND       PRES   REMARKS
LAS VEGAS      MOCLDY    61  17  18 NW3       29.87S
6HR MIN TEMP:  60; 6HR MAX TEMP:  68;

SALT LAKE CITY MOCLDY    43  36  76 SE9       29.88F
6HR MIN TEMP:  42; 6HR MAX TEMP:  45;

$$

NMZ009-TXZ055-261300-
NEW MEXICO-WEST TEXAS

CITY           SKY/WX    TMP DP  RH WIND       PRES   REMARKS
ALBUQUERQUE    CLEAR     42  30  62 N9        29.89R
6HR MIN TEMP:  42; 6HR MAX TEMP:  47;

EL PASO        PTCLDY    56  29  35 CALM      29.84R
6HR MIN TEMP:  54; 6HR MAX TEMP:  69;

$$


........................KEY........................
SKY/WX - SKY CONDITION/WEATHER
TMP    - TEMPERATURE IN FAHRENHEIT
DP     - DEW POINT IN FAHRENHEIT
RH     - RELATIVE HUMIDITY IN PERCENT
WIND   - DIRECTION AND SPEED IN MILES PER HOUR (MPH)
VRB    - VARIABLE WIND DIRECTION
PRES   - MEAN SEA LEVEL PRESSURE IN INCHES OF MERCURY
         F - FALLING PRESSURE   R - RISING PRESSURE
         S - STEADY PRESSURE
VSB    - VISIBILITY IN MILES
HX     - HEAT INDEX IN FAHRENHEIT
WCI    - WIND CHILL INDEX IN FAHRENHEIT
TC     - TEMPERATURE IN CELSIUS WHICH IS ALSO KNOWN AS
         TEMPERATURE IN CENTIGRADE
AFB    - AIR FORCE BASE
         LUKE AFB IS LUKE AIR FORCE BASE
         DAVIS-MONTHAN IS DAVIS-MONTHAN AIR FORCE BASE
NAS    - NAVAL AIR STATION
         EL CENTRO NAS IS EL CENTRO NAVAL AIR STATION
N/A    - NOT AVAILABLE





USA.gov is the U.S. government's official web portal to all federal, state and local government web resources and services.